Regional Weather Roundup
Issued by NWS

Home | Current Version | Previous Version | Text Only | Print | Product List | Glossary On
Versions: 1 2 3 4 5 6 7 8 9 10 11 12 13 14 15 16 17 18 19 20 21 22 23 24 25 26 27 28 29 30 31 32 33 34 35 36 37 38 39 40 41 42 43 44 45 46 47 48 49 50
000
ASUS44 KFWD 251901
RWRTX
NORTH TEXAS HOURLY WEATHER ROUNDUP
NATIONAL WEATHER SERVICE FORT WORTH TX
200 PM CDT SAT OCT 25 2014

NOTE: "FAIR" INDICATES FEW OR NO CLOUDS BELOW 12,000 FEET WITH NO
SIGNIFICANT WEATHER AND/OR OBSTRUCTIONS TO VISIBILITY.

TXZ118-119-252000-
DALLAS/FORT WORTH METROPLEX

CITY           SKY/WX    TMP DP  RH WIND       PRES   REMARKS
DFW AIRPORT    SUNNY     85  61  44 SW7       30.10F
DALLAS LOVE    SUNNY     84  62  47 S7        30.10F
FTW MEACHAM    SUNNY     87  61  41 SW10      30.09F
DAL-EXECUTIVE  SUNNY     87  61  41 VRB3      30.10F
FTW-ALLIANCE   SUNNY     86  60  41 VRB7      30.09F
FTW-NAS-JRB    SUNNY     90  59  35 VRB6      30.13F
FTW-SPINKS     SUNNY     86  61  42 SW6       30.12F
ARLINGTON      SUNNY     85  60  42 VRB3      30.10F
ADDISON        SUNNY     84  59  42 SW3       30.11F
MESQUITE       SUNNY     84  59  42 S7        30.10
LANCASTER      SUNNY     85  58  40 SW7       30.11F
$$

TXZ091>094-102>105-117-120-121-131>134-252000-
NORTH CENTRAL TEXAS

CITY           SKY/WX    TMP DP  RH WIND       PRES   REMARKS
SHRMAN/DENISON SUNNY     85  64  49 W8        30.10F
BRIDGEPORT     SUNNY     88  61  40 NW3       30.10F
DECATUR        SUNNY     85  57  38 SW3       30.11F
DENTON         SUNNY     85  59  41 VRB6      30.09F
MCKINNEY       SUNNY     85  60  42 W8        30.09F
ROCKWALL       SUNNY     84  62  47 W6        30.09F
TERRELL        SUNNY     85  62  46 SW9       30.11F
WAXAHACHIE     SUNNY     84  62  47 S5        30.12F
CLEBURNE       SUNNY     84  63  48 CALM      30.12F
GRANBURY       SUNNY     89  58  35 S10       30.11F
$$

TXZ083>090-098>101-113>116-127>130-139>142-154-155-252000-
WESTERN NORTH TEXAS

CITY           SKY/WX    TMP DP  RH WIND       PRES   REMARKS
WICHITA FALLS  SUNNY     88  58  36 SW10      30.07F
WF-KICKAPOO    SUNNY     88  55  32 W8G17     30.09F
VERNON         SUNNY     91  52  25 SW5       30.08F
ABILENE        SUNNY     87  53  31 S10G20    30.13F
ABILENE-DYESS  SUNNY     89  50  26 S12G21    30.12F
MINERAL WELLS  SUNNY     87  57  35 SW7       30.09F
STEPHENVILLE   SUNNY     85  57  38 SW6       30.15F
COMANCHE       SUNNY     85  59  40 SW8       30.14F
COLEMAN        SUNNY     86  57  37 S9        30.14F
$$

TXZ143>147-156>162-174-175-252000-
CENTRAL TEXAS

CITY           SKY/WX    TMP DP  RH WIND       PRES   REMARKS
WACO           SUNNY     85  61  44 SW7       30.11F
WACO-MCGREGOR  SUNNY     86  61  42 W8        30.12F
CORSICANA      SUNNY     85  59  41 VRB5      30.12F
MEXIA          SUNNY     83  62  48 SW5       30.12F
HEARNE         SUNNY     83  60  46 S6        30.13F
TEMPLE         SUNNY     84  61  45 SE5       30.12F
KILLEEN        SUNNY     85  60  42 SE7       30.13F
KILLEEN-SKYLRK SUNNY     84  61  45 S5        30.11F
GATESVILLE     SUNNY     86  61  42 SW6       30.14F
HAMILTON       SUNNY     86  56  36 SW8       30.14F
LAMPASAS       SUNNY     83  62  48 S6        30.13F
$$

TXZ095>097-106>112-122>126-135>138-148>153-164>167-252000-
EAST TEXAS

CITY           SKY/WX    TMP DP  RH WIND       PRES   REMARKS
PARIS          SUNNY     84  61  45 SW7       30.10F
SULPHUR SPRNGS SUNNY     85  60  43 SW9       30.12F
MOUNT PLEASANT SUNNY     83  60  45 SW8       30.12F
MINEOLA        SUNNY     82  61  47 W5        30.12F
TYLER          SUNNY     84  61  45 W9        30.12F
LONGVIEW       SUNNY     82  62  50 W7        30.11F
MARSHALL       SUNNY     86  64  48 SW7       30.13F
ATHENS         SUNNY     81  61  50 SW3       30.11F
PALESTINE      SUNNY     82  62  50 SW6       30.15F
JACKSONVILLE   SUNNY     82  60  48 SW6       30.16F
HENDERSON      SUNNY     82  61  49 W5        30.13F
NACOGDOCHES    SUNNY     81  61  50 CALM      30.14F
LUFKIN         SUNNY     83  60  45 S5        30.13F
$$

SUPPLEMENTAL OBSERVATIONS (CENTRAL)

CITY           SKY/WX    TMP DP  RH WIND       PRES   REMARKS
$$

SUPPLEMENTAL OBSERVATIONS (WEST)

CITY           SKY/WX    TMP DP  RH WIND       PRES   REMARKS
$$

SUPPLEMENTAL OBSERVATIONS (EAST)

CITY           SKY/WX    TMP DP  RH WIND       PRES   REMARKS
$$

SUPPLEMENTAL OBSERVATIONS ARE A COLLECTION OF AUTOMATED INSTRUMENTS
THAT ARE MAINTAINED BY A VARIETY OF FEDERAL AND STATE AGENCIES.
CERTAIN ELEMENTS...SUCH AS HUMIDITY VALUES AND SUSTAINED WIND
SPEEDS...MAY BE APPROXIMATED.




USA.gov is the U.S. government's official web portal to all federal, state and local government web resources and services.